Location: *
(28.3744°N, 81.5492°W)
Time: 03:09:08
(UTC+00:00)

Cosmos 2219 Rocket - Pass Details

Date: 15 June 2025
Orbit: 828 x 844 km, 71.0° (Epoch: 11 July)

Event Time Altitude Azimuth Distance (km) Brightness Sun altitude
Rises 01:25:48 0° 336° (NNW) 3,370 6.4 -12.3°
Reaches altitude 10° 01:28:16 10° 333° (NNW) 2,433 5.6 -12.7°
Maximum altitude 01:33:45 63° 254° (WSW) 922 2.6 -13.7°
Drops below altitude 10° 01:39:13 10° 174° (S) 2,422 4.2 -14.7°
Enters shadow 01:39:20 - 174° (S) 2,465 4.2 -14.7°
